Flag for United Kingdom Weather for the Past 2 Weeks in Newcastle upon Tyne, England, United Kingdom

Now
39 °F

Clear.


Feels Like: 36 °F
Forecast: 38 / 55 °F
Wind: 5 mph from Southwest

Location: Newcastle

Current Time: May 1, 2016 at 12:20:49 AM

Latest Report: Apr 30, 2016 at 11:20 PM


Visibility: 10 mi

Pressure: 30.21 "Hg

Humidity: 70%

Dew Point: 30 °F

Location of Newcastle upon TyneLocation

Historic Weather in Newcastle upon Tyne — Graph

°F

Newcastle upon Tyne Temperature Yesterday

Maximum temperature yesterday: 52 °F (at 1:20 PM)
Minimum temperature yesterday: 34 °F (at 3:50 AM)
Average temperature yesterday: 43 °F

High & Low Weather Summary for the Past Weeks

 TemperatureHumidityPressure
High64 °F (Apr 21, 11:50 AM)100% (Apr 21, 5:20 AM)30.45 "Hg (Apr 21, 5:20 AM)
Low28 °F (Apr 28, 4:50 AM)37% (Apr 25, 3:20 PM)29.45 "Hg (Apr 29, 4:50 AM)
Average42 °F74%30.00 "Hg
* Reported Apr 15 11:20 PM — Apr 30 11:20 PM, Newcastle upon Tyne, Weather by CustomWeather, © 2016

Note: Actual official high and low records may vary slightly from our data, if they occured in-between our weather recording intervals... More about our weather records

Advertising

Newcastle upon Tyne Weather History for the Previous 24 Hours

Scroll right to see more
 ConditionsComfort  
Time TempWeatherWind HumidityBarometerVisibility
11:20 PM
Sat, Apr 30
39 °FClear.5 mph70%30.21 "Hg10 mi
10:50 PM39 °FClear.6 mph75%30.21 "Hg10 mi
10:20 PM41 °FClear.6 mph70%30.21 "Hg10 mi
9:50 PM41 °FClear.5 mph70%30.18 "Hg10 mi
9:20 PM43 °FSunny.5 mph71%30.18 "Hg10 mi
8:50 PM45 °FSunny.5 mph66%30.18 "Hg10 mi
8:20 PM46 °FPassing clouds.6 mph62%30.15 "HgN/A
7:50 PM48 °FSunny.7 mph62%30.15 "Hg10 mi
6:50 PM50 °FPassing clouds.13 mph54%30.15 "HgN/A
6:20 PM50 °FPassing clouds.13 mph54%30.12 "HgN/A
5:50 PM52 °FPassing clouds.13 mph50%30.12 "HgN/A
5:20 PM52 °FPassing clouds.12 mph47%30.12 "HgN/A
4:50 PM52 °FPassing clouds.10 mph54%30.12 "HgN/A
4:20 PM50 °FScattered showers. Passing clouds.13 mph54%30.09 "HgN/A
3:50 PM52 °FScattered showers. Passing clouds.12 mph50%30.09 "HgN/A
3:20 PM48 °FScattered showers. Scattered clouds.9 mph62%30.09 "HgN/A
2:50 PM48 °FScattered showers. Scattered clouds.12 mph66%30.09 "HgN/A
2:20 PM46 °FSprinkles. Scattered clouds.14 mph62%30.09 "HgN/A
1:50 PM46 °FSprinkles. Scattered clouds.13 mph62%30.09 "HgN/A
1:20 PM52 °FScattered showers. Scattered clouds.12 mph58%30.07 "HgN/A
12:50 PM48 °FScattered showers. Scattered clouds.10 mph58%30.07 "HgN/A
12:20 PM46 °FScattered showers. Scattered clouds.9 mph62%30.07 "HgN/A
11:50 AM50 °FScattered clouds.8 mph62%30.07 "HgN/A
11:20 AM48 °FScattered clouds.8 mph66%30.07 "HgN/A
10:50 AM48 °FPassing clouds.7 mph62%30.07 "HgN/A
10:20 AM48 °FPassing clouds.8 mph66%30.04 "HgN/A
9:50 AM46 °FPassing clouds.8 mph71%30.04 "HgN/A
9:20 AM45 °FPassing clouds.10 mph76%30.04 "HgN/A
8:50 AM45 °FPassing clouds.9 mph76%30.04 "HgN/A
8:20 AM43 °FScattered clouds.10 mph81%30.04 "HgN/A
7:50 AM37 °FScattered clouds.3 mph87%30.01 "HgN/A
6:50 AM37 °FPassing clouds.6 mph81%30.01 "HgN/A
6:20 AM36 °FPassing clouds.9 mph87%30.01 "HgN/A
5:50 AM36 °FPassing clouds.7 mph87%29.98 "HgN/A
5:20 AM34 °FPassing clouds.5 mph87%29.98 "HgN/A
4:50 AM34 °FPassing clouds.8 mph87%29.98 "HgN/A
4:20 AM34 °FPassing clouds.5 mph87%29.95 "HgN/A
3:50 AM34 °FPassing clouds.3 mph87%29.95 "HgN/A
2:50 AM36 °FPassing clouds.9 mph87%29.92 "HgN/A
2:20 AM36 °FPassing clouds.9 mph87%29.92 "HgN/A
1:50 AM36 °FPassing clouds.9 mph87%29.92 "HgN/A
1:20 AM36 °FPassing clouds.9 mph87%29.92 "HgN/A
12:50 AM36 °FPassing clouds.7 mph87%29.92 "HgN/A
Weather by CustomWeather, © 2016

See weather overviewHow to use our weather pages